Location: Fontevrault
(47.1823°N, 0.0493°E)
Time: 09:00:13
(UTC+00:00)

Cosmos 1844 - Pass Details

Date: 16 June 2021
Orbit: 823 x 867 km, 70.9° (Epoch: 26 July)

Event Time Altitude Azimuth Distance (km) Brightness Sun altitude
Rises 21:18:13 0° 334° (NNW) 3,371 8.7 -10.5°
Reaches altitude 10° 21:20:42 10° 338° (NNW) 2,435 7.5 -10.8°
Maximum altitude 21:26:13 61° 59° (ENE) 935 3.9 -11.3°
Enters shadow 21:30:44 16° 137° (SE) 2,064 5.1 -11.8°
